Tracking 34151 objects as of 21-May-2026
HD Live streaming from Space Station
objects crossing your sky now

ONEWEB-0041

Track ONEWEB-0041 now!
10-day predictions
ONEWEB-0041 is classified as:


NORAD ID: 45148
Int'l Code: 2020-008T
Perigee: 1,072.4 km
Apogee: 1,096.7 km
Inclination: 87.9 °
Period: 106.8 minutes
Semi major axis: 7455 km
RCS: Unknown
Launch date: February 6, 2020
Source: United Kingdom (UK)
Launch site: TYURATAM MISSILE AND SPACE COMPLEX (TTMTR)
Your satellite tracking list
Your tracking list is empty




NASA's NSSDC Master Catalog

Two Line Element Set (TLE):
1 45148U 20008T   26140.89129731  .00000040  00000-0  41687-4 0  9999
2 45148  87.9376   9.7107 0016283 318.1804  41.8100 13.48602224314377
Source of the keplerian elements: AFSPC